Regional Weather Roundup
Issued by NWS Lake Charles, LA

Home | Current Version | Previous Version | Text Only | Print | Product List | Glossary On
Versions: 1 2 3 4 5 6 7 8 9 10 11 12 13 14 15 16 17 18 19 20 21 22 23 24 25 26 27
000
ASUS44 KLCH 310610
RWRLCH
REGIONAL WEATHER ROUNDUP
NATIONAL WEATHER SERVICE LAKE CHARLES LA
100 AM CDT SAT JUL 31 2021

Note: "fair" indicates few or no clouds below 12,000 feet with no
significant weather and/or obstructions to visibility.


ACROSS SOUTHEAST TEXAS

CITY           SKY/WX    TMP DP  RH WIND       PRES   REMARKS
BEAUMONT       CLEAR     79  78  97 CALM      30.04S
BEAUMONT CITY  FAIR      80  78  94 CALM      30.04F
ORANGE         CLEAR     82  77  85 CALM      30.06S
JASPER         CLEAR     77  77 100 CALM      30.04S
$$

ACROSS CENTRAL LOUISIANA

CITY           SKY/WX    TMP DP  RH WIND       PRES   REMARKS
LEESVILLE      CLEAR     81  77  86 SW3       30.03F
FULLERTON      FAIR      80  77  90 CALM      30.01F
ALEXANDRIA INT CLEAR     80  77  90 CALM      30.01F
ESLER FIELD    CLEAR     79  77  94 CALM      30.02F FOG
DERIDDER       NOT AVBL
OAKDALE        CLEAR     79  75  89 CALM      30.04F
OPELOUSAS      FAIR      81  78  91 CALM      30.04F
$$

ACROSS SOUTHWEST AND SOUTH CENTRAL LOUISIANA

CITY           SKY/WX    TMP DP  RH WIND       PRES   REMARKS
DEQUINCY         N/A     78  76  93 CALM      30.05S
SULPHUR        CLEAR     80  76  88 CALM      30.05S
LAKE CHARLES   CLEAR     81  79  94 CALM      30.04S
CHENNAULT INT  CLEAR     84  77  79 W6        30.04S
JENNINGS       FAIR     N/A N/A N/A CALM      30.05S
LAFAYETTE      CLEAR     81  76  84 CALM      30.04S
NEW IBERIA     CLEAR     79  78  97 CALM      30.04F
ABBEVILLE        N/A     78  74  88 CALM      30.05S
PATTERSON      CLEAR     79  79 100 CALM      30.05S
SALT POINT       N/A     86  78  77 VRB3      30.03S
$$

SELECTED SITES ACROSS THE REGION

CITY           SKY/WX    TMP DP  RH WIND       PRES   REMARKS
HOUSTON BUSH   MOCLDY    81  74  79 CALM      30.04S
HOUSTON HOBBY  MOCLDY    81  75  82 S6        30.03F
GALVESTON      CLEAR     85  77  77 SW6       30.04F
COLLEGE STAT   CLEAR     80  73  79 S5        30.05S
CONROE         CLEAR     77  74  90 CALM      30.06S
HUNTSVILLE     CLEAR     82  72  71 S6        30.05S
LUFKIN         CLEAR     81  78  91 CALM      30.05R
SHREVEPORT     CLEAR     84  76  76 CALM      30.02F
MONROE         CLEAR     84  78  82 CALM      30.03F
NATCHEZ MS     PTCLDY    81  79  94 CALM      30.05F
BATON ROUGE    PTCLDY    80  78  94 CALM      30.03F
N.O. INTL ARPT PTCLDY    84  79  85 SW3       30.03F
SLIDELL        PTCLDY    83  78  85 CALM      30.02F
$$

MARINE REPORTS

STATION/POSITION TIME  SKY/WX   TEMP    WIND        PRES    VSBY
                                AIR SEA DIR/SP/G
                 (UTC)          (F)     (DEG/KT/KT) (MB)    (MI)
BUOY 30 S HIGH I 0550            85 88  220/ 10/ 12 1016.7F
WVE H/P(F/S)=  1/ 5

SEA RIM ST PARK  0600            81     260/  4/  5 1017.3
PORT ARTHUR      0530            84 87  210/  7/  9 1017.1F
TEXAS POINT      0530            84 89  240/  7/  9 1016.3R
CALCASIEU PASS   0530            85 89  260/  5/  8 1015.6S
LK CHARLES BEACH 0530            84 87              1017.5R
MARSH ISLAND     NOT AVBL
FRESH WATER LOCK 0530                   310/  1/  2   N/A
AMERADA PASS     0530            85 87   CALM  /  3 1017.7R
$$



USA.gov is the U.S. government's official web portal to all federal, state and local government web resources and services.